| time (UTC) | temp C | wind direction | speed KPH | gust KPH | rain 1hr cm | rain 24hr cm | rain mn cm | humidity % | barometer mb |
| 20260507211541 | 22 | 48 | 3.2 | 9.7 | 0.00 | 0.00 | 0.00 | 31 | 1018.3 |
| 20260507210031 | 22 | 46 | 3.2 | 11.3 | 0.00 | 0.00 | 0.00 | 32 | 1018.5 |
| 20260507204607 | 21 | 52 | 3.2 | 9.7 | 0.00 | 0.00 | 0.00 | 32 | 1018.6 |
| 20260507203028 | 21 | 42 | 3.2 | 9.7 | 0.00 | 0.00 | 0.00 | 33 | 1018.7 |
| 20260507201532 | 20 | 49 | 3.2 | 9.7 | 0.00 | 0.00 | 0.00 | 34 | 1018.7 |
| 20260507200030 | 20 | 48 | 4.8 | 12.9 | 0.00 | 0.00 | 0.00 | 35 | 1018.8 |
| 20260507194528 | 21 | 55 | 3.2 | 11.3 | 0.00 | 0.00 | 0.00 | 36 | 1019.1 |
| 20260507193034 | 20 | 66 | 1.6 | 6.4 | 0.00 | 0.00 | 0.00 | 38 | 1019.5 |
| 20260507191530 | 19 | 47 | 3.2 | 11.3 | 0.00 | 0.00 | 0.00 | 40 | 1019.4 |
| 20260507190033 | 18 | 43 | 3.2 | 8.0 | 0.00 | 0.00 | 0.00 | 43 | 1019.4 |
| 20260507183040 | 18 | 50 | 3.2 | 9.7 | 0.00 | 0.00 | 0.00 | 46 | 1019.8 |
| 20260507181533 | 18 | 42 | 1.6 | 8.0 | 0.00 | 0.00 | 0.00 | 47 | 1020.0 |
| 20260507180030 | 17 | 40 | 3.2 | 9.7 | 0.00 | 0.00 | 0.00 | 49 | 1020.0 |
| 20260507174603 | 17 | 42 | 1.6 | 9.7 | 0.00 | 0.00 | 0.00 | 51 | 1020.3 |
| 20260507173028 | 16 | 42 | 3.2 | 12.9 | 0.00 | 0.00 | 0.00 | 54 | 1020.2 |
| 20260507171535 | 16 | 47 | 3.2 | 8.0 | 0.00 | 0.00 | 0.00 | 56 | 1020.2 |
| 20260507170033 | 16 | 57 | 3.2 | 8.0 | 0.00 | 0.00 | 0.00 | 57 | 1020.4 |
| 20260507163033 | 15 | 51 | 3.2 | 11.3 | 0.00 | 0.00 | 0.00 | 62 | 1020.5 |
| 20260507161531 | 15 | 30 | 3.2 | 9.7 | 0.00 | 0.00 | 0.00 | 65 | 1020.5 |
| 20260507154531 | 13 | 20 | 1.6 | 9.7 | 0.00 | 0.00 | 0.00 | 70 | 1020.8 |
| 20260507153031 | 12 | 8 | 1.6 | 8.0 | 0.00 | 0.00 | 0.00 | 72 | 1021.1 |
| 20260507151532 | 12 | 8 | 1.6 | 6.4 | 0.00 | 0.00 | 0.00 | 74 | 1021.1 |
| 20260507144532 | 11 | 14 | 0.0 | 6.4 | 0.00 | 0.00 | 0.00 | 80 | 1021.0 |
| 20260507143031 | 10 | 357 | 1.6 | 11.3 | 0.00 | 0.00 | 0.00 | 79 | 1020.8 |
| 20260507141530 | 11 | 1 | 3.2 | 12.9 | 0.00 | 0.00 | 0.00 | 79 | 1020.7 |
| 20260507140031 | 10 | 43 | 1.6 | 8.0 | 0.00 | 0.00 | 0.00 | 80 | 1020.5 |
| 20260507134532 | 10 | 43 | 3.2 | 8.0 | 0.00 | 0.00 | 0.00 | 82 | 1020.5 |
| 20260507133103 | 9 | 55 | 3.2 | 8.0 | 0.00 | 0.00 | 0.00 | 83 | 1020.7 |
| 20260507131530 | 9 | 67 | 0.0 | 3.2 | 0.00 | 0.00 | 0.00 | 83 | 1020.8 |
| 20260507130030 | 9 | 67 | 0.0 | 3.2 | 0.00 | 0.00 | 0.00 | 83 | 1020.7 |
| 20260507124530 | 9 | 64 | 0.0 | 6.4 | 0.00 | 0.00 | 0.00 | 83 | 1020.8 |
| 20260507123145 | 9 | 69 | 0.0 | 4.8 | 0.00 | 0.00 | 0.00 | 84 | 1020.7 |
| 20260507121531 | 10 | 43 | 0.0 | 4.8 | 0.00 | 0.00 | 0.00 | 84 | 1020.6 |
| 20260507120029 | 9 | 71 | 0.0 | 4.8 | 0.00 | 0.00 | 0.00 | 85 | 1020.5 |
| 20260507114535 | 10 | 84 | 0.0 | 4.8 | 0.00 | 0.00 | 0.00 | 85 | 1020.4 |
| 20260507113031 | 10 | 73 | 1.6 | 4.8 | 0.00 | 0.00 | 0.00 | 85 | 1020.2 |
| 20260507111531 | 10 | 75 | 1.6 | 4.8 | 0.00 | 0.00 | 0.00 | 83 | 1020.2 |
| 20260507110031 | 10 | 90 | 0.0 | 3.2 | 0.00 | 0.00 | 0.00 | 82 | 1020.2 |
| 20260507104530 | 10 | 74 | 0.0 | 4.8 | 0.00 | 0.00 | 0.00 | 81 | 1020.0 |
| 20260507103031 | 11 | 47 | 0.0 | 8.0 | 0.00 | 0.00 | 0.00 | 80 | 1020.0 |
| 20260507101531 | 11 | 13 | 0.0 | 8.0 | 0.00 | 0.00 | 0.00 | 79 | 1019.9 |
| 20260507100039 | 11 | 350 | 0.0 | 6.4 | 0.00 | 0.00 | 0.00 | 79 | 1019.9 |
| 20260507093031 | 11 | 30 | 0.0 | 4.8 | 0.00 | 0.00 | 0.00 | 80 | 1019.8 |
| 20260507091526 | 11 | 71 | 0.0 | 4.8 | 0.00 | 0.00 | 0.00 | 81 | 1019.8 |
| 20260507083029 | 12 | 22 | 0.0 | 6.4 | 0.00 | 0.00 | 0.00 | 79 | 1019.8 |
| 20260507081531 | 12 | 43 | 1.6 | 6.4 | 0.00 | 0.00 | 0.00 | 78 | 1019.8 |
| 20260507073032 | 12 | 35 | 1.6 | 8.0 | 0.00 | 0.00 | 0.00 | 80 | 1020.0 |
| 20260507071531 | 12 | 30 | 0.0 | 3.2 | 0.00 | 0.00 | 0.00 | 78 | 1020.0 |
| 20260507070029 | 13 | 35 | 0.0 | 3.2 | 0.00 | 0.00 | 0.00 | 77 | 1020.0 |
| 20260507064532 | 13 | 12 | 0.0 | 6.4 | 0.00 | 0.00 | 0.00 | 76 | 1020.1 |
| 20260507063031 | 13 | 28 | 0.0 | 6.4 | 0.00 | 0.00 | 0.00 | 76 | 1020.1 |
| 20260507061529 | 13 | 29 | 1.6 | 9.7 | 0.00 | 0.00 | 0.00 | 76 | 1020.2 |
| 20260507060030 | 13 | 20 | 1.6 | 8.0 | 0.00 | 0.00 | 0.00 | 76 | 1020.3 |
| 20260507053026 | 12 | 44 | 0.0 | 4.8 | 0.00 | 0.00 | 0.00 | 75 | 1020.6 |
| 20260507051529 | 13 | 4 | 0.0 | 1.6 | 0.00 | 0.00 | 0.00 | 72 | 1020.6 |
| 20260507043030 | 16 | 2 | 1.6 | 9.7 | 0.00 | 0.00 | 0.00 | 55 | 1020.3 |
| 20260507041528 | 16 | 1 | 3.2 | 11.3 | 0.00 | 0.00 | 0.00 | 55 | 1020.2 |
| 20260507040035 | 16 | 4 | 1.6 | 8.0 | 0.00 | 0.00 | 0.00 | 54 | 1020.2 |
| 20260507034531 | 16 | 23 | 1.6 | 8.0 | 0.00 | 0.00 | 0.00 | 56 | 1020.0 |
| 20260507033030 | 16 | 70 | 0.0 | 6.4 | 0.00 | 0.00 | 0.00 | 57 | 1019.9 |
| 20260507031531 | 17 | 54 | 1.6 | 8.0 | 0.00 | 0.00 | 0.00 | 57 | 1019.8 |
| 20260507030034 | 17 | 76 | 0.0 | 4.8 | 0.00 | 0.00 | 0.00 | 55 | 1019.8 |
| 20260507024530 | 17 | 77 | 1.6 | 6.4 | 0.00 | 0.00 | 0.00 | 54 | 1019.8 |
| 20260507023029 | 17 | 76 | 0.0 | 4.8 | 0.00 | 0.00 | 0.00 | 55 | 1019.7 |
| 20260507021533 | 17 | 139 | 0.0 | 6.4 | 0.00 | 0.00 | 0.00 | 55 | 1019.7 |
| 20260507020031 | 18 | 93 | 0.0 | 6.4 | 0.00 | 0.00 | 0.00 | 53 | 1019.7 |
| 20260507014528 | 18 | 81 | 0.0 | 4.8 | 0.00 | 0.00 | 0.00 | 52 | 1019.6 |
| 20260507011530 | 19 | 44 | 0.0 | 6.4 | 0.00 | 0.00 | 0.00 | 48 | 1019.5 |
| 20260507010030 | 20 | 38 | 1.6 | 8.0 | 0.00 | 0.00 | 0.00 | 46 | 1019.3 |
| 20260507004530 | 20 | 40 | 1.6 | 11.3 | 0.00 | 0.00 | 0.00 | 46 | 1019.2 |
| 20260507003105 | 20 | 33 | 0.0 | 6.4 | 0.00 | 0.00 | 0.00 | 45 | 1019.1 |
| 20260507001605 | 20 | 48 | 0.0 | 8.0 | 0.00 | 0.00 | 0.00 | 44 | 1019.1 |
| 20260507000031 | 21 | 43 | 1.6 | 8.0 | 0.00 | 0.00 | 0.00 | 43 | 1019.0 |
| 20260506234531 | 22 | 45 | 3.2 | 11.3 | 0.00 | 0.00 | 0.00 | 42 | 1018.8 |
| 20260506233029 | 22 | 42 | 4.8 | 17.7 | 0.00 | 0.00 | 0.00 | 42 | 1018.6 |
| 20260506231531 | 22 | 31 | 6.4 | 16.1 | 0.00 | 0.00 | 0.00 | 42 | 1018.5 |
| 20260506230029 | 21 | 25 | 8.0 | 22.5 | 0.00 | 0.00 | 0.00 | 43 | 1018.5 |
| 20260506221530 | 22 | 19 | 6.4 | 19.3 | 0.00 | 0.00 | 0.00 | 44 | 1019.1 |
| 20260506220031 | 22 | 27 | 3.2 | 17.7 | 0.00 | 0.00 | 0.00 | 43 | 1019.0 |
| 20260506214532 | 23 | 30 | 3.2 | 11.3 | 0.00 | 0.00 | 0.00 | 43 | 1018.8 |